When you browse on this site, cookies collect data to enhance your experience and personalize the content and advertising you see.
Visit our Privacy Policy to learn more. By continuing to use the site, you agree to this use of cookies and data.
  • In Lithuania
  • List of Countries
  • For 7 days
  • Water Temperature
  • Weather Map
  • Weather Widgets
  • user-avatar
    Login

    Hourly Weather Melbourne

    Today, 22 September, Sunday

    Time Temperature Precipitation Wind Pressure Humidity
    00:00 +10°C° 0 mm 3 mps 763 mmHg 81%
    01:00 +8°C° 0 mm 4 mps 763 mmHg 80%
    02:00 +8°C° 0 mm 3 mps 763 mmHg 80%
    03:00 +8°C° 0 mm 3 mps 764 mmHg 79%
    04:00 +7°C° 0 mm 3 mps 764 mmHg 79%
    05:00 +7°C° 0 mm 3 mps 764 mmHg 78%
    06:00 +7°C° 0 mm 3 mps 765 mmHg 77%
    07:00 +7°C° 0 mm 3 mps 765 mmHg 76%
    08:00 +9°C° 0 mm 3 mps 765 mmHg 65%
    09:00 +11°C° 0 mm 4 mps 766 mmHg 55%
    10:00 +13°C° 0 mm 3 mps 766 mmHg 45%
    11:00 +14°C° 0 mm 3 mps 765 mmHg 44%
    12:00 +14°C° 0 mm 3 mps 765 mmHg 43%
    13:00 +16°C° 0 mm 3 mps 765 mmHg 42%
    14:00 +16°C° 0 mm 3 mps 764 mmHg 45%
    15:00 +14°C° 0 mm 3 mps 764 mmHg 48%
    16:00 +15°C° 0 mm 2 mps 764 mmHg 49%
    17:00 +14°C° 0.4 mm 2 mps 765 mmHg 57%
    18:00 +12°C° 0.4 mm 3 mps 765 mmHg 65%
    19:00 +11°C° 0.4 mm 3 mps 765 mmHg 73%
    20:00 +10°C° 0.2 mm 3 mps 765 mmHg 75%
    21:00 +10°C° 0.2 mm 3 mps 765 mmHg 76%
    22:00 +9°C° 0.2 mm 3 mps 765 mmHg 78%
    23:00 +9°C° 0 mm 3 mps 765 mmHg 78%

    Tomorrow, 23 September, Monday

    Time Temperature Precipitation Wind Pressure Humidity
    00:00 +9°C° 0 mm 3 mps 765 mmHg 78%
    01:00 +9°C° 0 mm 2 mps 765 mmHg 79%
    02:00 +9°C° 0.6 mm 3 mps 764 mmHg 81%
    03:00 +8°C° 0.6 mm 3 mps 764 mmHg 83%
    04:00 +7°C° 0.6 mm 4 mps 763 mmHg 85%
    05:00 +7°C° 0.5 mm 4 mps 764 mmHg 84%
    06:00 +7°C° 0.5 mm 4 mps 764 mmHg 83%
    07:00 +7°C° 0.5 mm 4 mps 765 mmHg 83%
    08:00 +8°C° 0.1 mm 4 mps 765 mmHg 78%
    09:00 +10°C° 0.1 mm 4 mps 765 mmHg 74%
    10:00 +12°C° 0.1 mm 4 mps 766 mmHg 69%
    11:00 +13°C° 0.1 mm 4 mps 766 mmHg 64%
    12:00 +14°C° 0.1 mm 4 mps 766 mmHg 59%
    13:00 +15°C° 0.1 mm 4 mps 766 mmHg 54%
    14:00 +15°C° 0.2 mm 4 mps 766 mmHg 57%
    15:00 +14°C° 0.2 mm 4 mps 766 mmHg 60%
    16:00 +14°C° 0.2 mm 4 mps 766 mmHg 63%
    17:00 +13°C° 0.1 mm 3 mps 766 mmHg 66%
    18:00 +13°C° 0.1 mm 2 mps 767 mmHg 70%
    19:00 +10°C° 0.1 mm 2 mps 767 mmHg 74%
    20:00 +10°C° 0.1 mm 2 mps 768 mmHg 76%
    21:00 +9°C° 0.1 mm 3 mps 768 mmHg 78%
    22:00 +9°C° 0.1 mm 3 mps 769 mmHg 80%
    23:00 +8°C° 0 mm 3 mps 769 mmHg 81%

    Day after tomorrow, 24 September, Tuesday

    Time Temperature Precipitation Wind Pressure Humidity
    00:00 +8°C° 0 mm 3 mps 769 mmHg 82%
    01:00 +7°C° 0 mm 3 mps 769 mmHg 84%
    02:00 +7°C° 0 mm 3 mps 769 mmHg 83%
    03:00 +7°C° 0 mm 3 mps 769 mmHg 83%
    04:00 +6°C° 0 mm 2 mps 769 mmHg 83%
    05:00 +7°C° 0 mm 3 mps 769 mmHg 82%
    06:00 +7°C° 0 mm 3 mps 769 mmHg 81%
    07:00 +7°C° 0 mm 3 mps 770 mmHg 81%
    08:00 +9°C° 0 mm 3 mps 770 mmHg 71%
    09:00 +11°C° 0 mm 3 mps 770 mmHg 62%
    10:00 +12°C° 0 mm 3 mps 770 mmHg 53%
    11:00 +13°C° 0 mm 3 mps 770 mmHg 54%
    12:00 +13°C° 0 mm 3 mps 769 mmHg 56%
    13:00 +13°C° 0 mm 3 mps 769 mmHg 57%
    14:00 +13°C° 0 mm 3 mps 769 mmHg 60%
    15:00 +13°C° 0 mm 3 mps 769 mmHg 63%
    16:00 +13°C° 0 mm 3 mps 768 mmHg 65%
    17:00 +13°C° 0 mm 2 mps 769 mmHg 70%
    18:00 +12°C° 0 mm 2 mps 769 mmHg 74%
    19:00 +11°C° 0 mm 1 mps 769 mmHg 78%
    20:00 +11°C° 0 mm 1 mps 770 mmHg 79%
    21:00 +10°C° 0 mm 2 mps 770 mmHg 79%
    22:00 +10°C° 0 mm 2 mps 770 mmHg 80%
    23:00 +10°C° 0 mm 2 mps 770 mmHg 82%

    25 September, Wednesday

    Time Temperature Precipitation Wind Pressure Humidity
    00:00 +9°C° 0 mm 2 mps 770 mmHg 83%
    01:00 +9°C° 0 mm 3 mps 770 mmHg 85%
    02:00 +8°C° 0 mm 2 mps 770 mmHg 85%
    03:00 +8°C° 0 mm 2 mps 770 mmHg 86%
    04:00 +7°C° 0 mm 2 mps 769 mmHg 87%
    05:00 +7°C° 0 mm 2 mps 770 mmHg 86%
    06:00 +8°C° 0 mm 2 mps 770 mmHg 85%
    07:00 +8°C° 0 mm 2 mps 770 mmHg 85%
    08:00 +11°C° 0 mm 1 mps 770 mmHg 76%
    09:00 +13°C° 0 mm 1 mps 770 mmHg 68%
    10:00 +15°C° 0 mm 1 mps 770 mmHg 60%
    11:00 +15°C° 0 mm 1 mps 770 mmHg 58%
    12:00 +16°C° 0 mm 1 mps 769 mmHg 56%
    13:00 +16°C° 0 mm 1 mps 769 mmHg 54%
    14:00 +16°C° 0 mm 1 mps 768 mmHg 55%
    15:00 +16°C° 0 mm 1 mps 768 mmHg 55%
    16:00 +16°C° 0 mm 1 mps 768 mmHg 56%
    17:00 +15°C° 0 mm 1 mps 768 mmHg 61%
    18:00 +14°C° 0 mm 1 mps 768 mmHg 67%
    19:00 +13°C° 0 mm 1 mps 769 mmHg 73%
    20:00 +12°C° 0 mm 1 mps 769 mmHg 75%
    21:00 +11°C° 0 mm 1 mps 769 mmHg 78%
    22:00 +10°C° 0 mm 1 mps 769 mmHg 80%
    23:00 +10°C° 0 mm 1 mps 769 mmHg 82%

    26 September, Thursday

    Time Temperature Precipitation Wind Pressure Humidity
    00:00 +10°C° 0 mm 1 mps 769 mmHg 83%
    01:00 +9°C° 0 mm 1 mps 769 mmHg 85%
    02:00 +9°C° 0 mm 1 mps 768 mmHg 85%
    03:00 +9°C° 0 mm 1 mps 768 mmHg 86%
    04:00 +9°C° 0 mm 1 mps 768 mmHg 86%
    05:00 +9°C° 0 mm 1 mps 768 mmHg 85%
    06:00 +8°C° 0 mm 2 mps 768 mmHg 83%
    07:00 +9°C° 0 mm 2 mps 768 mmHg 82%
    08:00 +12°C° 0 mm 2 mps 767 mmHg 72%
    09:00 +15°C° 0 mm 2 mps 767 mmHg 63%
    10:00 +17°C° 0 mm 2 mps 767 mmHg 54%
    11:00 +18°C° 0 mm 2 mps 766 mmHg 51%
    12:00 +19°C° 0 mm 3 mps 766 mmHg 49%
    13:00 +20°C° 0 mm 3 mps 765 mmHg 47%
    14:00 +20°C° 0 mm 3 mps 765 mmHg 48%
    15:00 +20°C° 0 mm 3 mps 764 mmHg 50%
    16:00 +20°C° 0 mm 4 mps 763 mmHg 51%
    17:00 +19°C° 0 mm 4 mps 763 mmHg 56%
    18:00 +17°C° 0 mm 4 mps 764 mmHg 60%
    19:00 +15°C° 0 mm 4 mps 764 mmHg 65%
    20:00 +14°C° 0 mm 4 mps 764 mmHg 67%
    21:00 +13°C° 0 mm 4 mps 763 mmHg 69%
    22:00 +13°C° 0 mm 4 mps 763 mmHg 71%
    23:00 +13°C° 0 mm 5 mps 763 mmHg 70%

    27 September, Friday

    Time Temperature Precipitation Wind Pressure Humidity
    00:00 +13°C° 0 mm 5 mps 763 mmHg 68%
    01:00 +13°C° 0 mm 5 mps 762 mmHg 67%
    02:00 +13°C° 0 mm 5 mps 762 mmHg 66%
    03:00 +13°C° 0 mm 5 mps 762 mmHg 65%
    04:00 +13°C° 0 mm 5 mps 762 mmHg 64%
    05:00 +13°C° 0 mm 4 mps 762 mmHg 65%
    06:00 +12°C° 0 mm 4 mps 763 mmHg 66%
    07:00 +12°C° 0 mm 3 mps 763 mmHg 67%
    08:00 +13°C° 0 mm 3 mps 763 mmHg 67%
    09:00 +14°C° 0 mm 3 mps 764 mmHg 66%
    10:00 +16°C° 0 mm 3 mps 764 mmHg 66%
    11:00 +14°C° 0 mm 3 mps 764 mmHg 66%
    12:00 +14°C° 0 mm 4 mps 764 mmHg 66%
    13:00 +14°C° 0 mm 4 mps 764 mmHg 65%
    14:00 +14°C° 0 mm 4 mps 764 mmHg 63%
    15:00 +14°C° 0 mm 4 mps 764 mmHg 60%
    16:00 +14°C° 0 mm 4 mps 764 mmHg 58%
    17:00 +13°C° 0 mm 3 mps 764 mmHg 61%
    18:00 +11°C° 0 mm 3 mps 765 mmHg 65%
    19:00 +10°C° 0 mm 2 mps 765 mmHg 68%
    20:00 +9°C° 0 mm 2 mps 766 mmHg 70%
    21:00 +10°C° 0 mm 1 mps 766 mmHg 72%
    22:00 +9°C° 0 mm 1 mps 766 mmHg 74%
    23:00 +8°C° 0 mm 1 mps 766 mmHg 76%
    Show more